2023/07/25 00:00:00, 0.0,23.0
2023/07/25 00:10:00, 0.0,22.6
2023/07/25 00:20:00, 0.1,23.0
2023/07/25 00:30:00, 0.2,22.8
2023/07/25 00:40:00,10.2,22.8
2023/07/25 00:50:00, 5.1,22.8
2023/07/25 01:00:00, 0.1,22.7
2023/07/25 01:10:00, 0.0,22.8
2023/07/25 01:20:00, 0.0,22.7
2023/07/25 01:30:00, 0.0,22.8
2023/07/25 01:40:00, 0.1,22.9
2023/07/25 01:50:00, 0.1,22.6
2023/07/25 02:00:00, 8.1,22.7
2023/07/25 02:10:00,14.7,22.7
2023/07/25 02:20:00,15.8,22.7
2023/07/25 02:30:00,16.2,22.8
2023/07/25 02:40:00,16.7,22.9
2023/07/25 02:50:00,17.3,22.9
2023/07/25 03:00:00,17.7,22.6
2023/07/25 03:10:00,18.1,22.7
2023/07/25 03:20:00,18.5,22.7
2023/07/25 03:30:00,19.0,22.8
2023/07/25 03:40:00,16.9,22.6
2023/07/25 03:50:00,11.5,22.5
2023/07/25 04:00:00, 9.1,22.4
2023/07/25 04:10:00,14.9,22.3
2023/07/25 04:20:00,19.6,22.3
2023/07/25 04:30:00,20.5,22.1
2023/07/25 04:40:00,20.3,22.2
2023/07/25 04:50:00,20.0,22.2
2023/07/25 05:00:00,19.5,22.1
2023/07/25 05:10:00,18.9,22.2
2023/07/25 05:20:00,18.4,21.9
2023/07/25 05:30:00,18.1,22.3
2023/07/25 05:40:00,17.6,22.0
2023/07/25 05:50:00,17.4,22.3
2023/07/25 06:00:00,17.4,22.2
2023/07/25 06:10:00,17.3,22.3
2023/07/25 06:20:00,17.2,22.4
2023/07/25 06:30:00,17.1,22.5
2023/07/25 06:40:00,16.9,22.6
2023/07/25 06:50:00,16.6,23.5
2023/07/25 07:00:00,16.3,23.7
2023/07/25 07:10:00,16.1,24.0
2023/07/25 07:20:00,15.8,24.0
2023/07/25 07:30:00,15.7,24.0
2023/07/25 07:40:00,15.6,24.5
2023/07/25 07:50:00,15.4,24.7
2023/07/25 08:00:00,15.4,25.0
2023/07/25 08:10:00,15.2,25.7
2023/07/25 08:20:00,15.2,25.8
2023/07/25 08:30:00,15.1,26.2
2023/07/25 08:40:00,14.8,26.6
2023/07/25 08:50:00,15.1,26.9
2023/07/25 09:00:00,15.3,27.4
2023/07/25 09:10:00,15.2,27.9
2023/07/25 09:20:00,15.0,28.3
2023/07/25 09:30:00,---,29.0
2023/07/25 09:40:00, 0.0,29.8
2023/07/25 09:50:00, 0.1,30.6
2023/07/25 10:00:00,---,31.4
2023/07/25 10:10:00, 0.0,32.1
2023/07/25 10:20:00, 0.9,32.9
2023/07/25 10:30:00, 0.1,32.7
2023/07/25 10:40:00, 0.1,33.5
2023/07/25 10:50:00, 0.3,30.7
2023/07/25 11:00:00,19.0,29.3
2023/07/25 11:10:00, 0.0,32.3
2023/07/25 11:20:00,---,33.9
2023/07/25 11:30:00, 0.1,33.2
2023/07/25 11:40:00, 0.1,33.7
2023/07/25 11:50:00, 0.1,34.3
2023/07/25 12:00:00, 8.6,33.8
2023/07/25 12:10:00,18.5,34.1
2023/07/25 12:20:00,---,34.9
2023/07/25 12:30:00,17.1,35.9
2023/07/25 12:40:00,18.0,36.0
2023/07/25 12:50:00,16.9,36.1
2023/07/25 13:00:00,18.1,33.3
2023/07/25 13:10:00,18.1,31.7
2023/07/25 13:20:00,17.8,33.1
2023/07/25 13:30:00,17.2,32.5
2023/07/25 13:40:00,17.3,31.2
2023/07/25 13:50:00,17.0,31.5
2023/07/25 14:00:00,16.7,32.2
2023/07/25 14:10:00,17.0,32.7
2023/07/25 14:20:00,16.9,32.1
2023/07/25 14:30:00,16.4,32.3
2023/07/25 14:40:00,16.3,32.6
2023/07/25 14:50:00,16.2,32.1
2023/07/25 15:00:00,16.0,33.1
2023/07/25 15:10:00,16.0,32.0
2023/07/25 15:20:00,16.0,31.2
2023/07/25 15:30:00,16.0,29.8
2023/07/25 15:40:00,15.9,29.1
2023/07/25 15:50:00,15.6,29.0
2023/07/25 16:00:00,15.1,28.7
2023/07/25 16:10:00,14.3,28.0
2023/07/25 16:20:00,15.2,27.3
2023/07/25 16:30:00,15.4,27.6
2023/07/25 16:40:00,15.5,27.6
2023/07/25 16:50:00,15.9,28.1
2023/07/25 17:00:00,16.2,27.8
2023/07/25 17:10:00,16.7,27.6
2023/07/25 17:20:00,17.0,28.2
2023/07/25 17:30:00,17.5,28.9
2023/07/25 17:40:00,17.2,29.0
2023/07/25 17:50:00,16.8,28.0
2023/07/25 18:00:00,16.1,27.9
2023/07/25 18:10:00,15.4,27.3
2023/07/25 18:20:00,14.7,27.6
2023/07/25 18:30:00,14.4,27.6
2023/07/25 18:40:00,14.3,27.1
2023/07/25 18:50:00,13.4,26.4
2023/07/25 19:00:00,10.4,26.9
2023/07/25 19:10:00, 0.4,26.5
2023/07/25 19:20:00, 0.0,26.4
2023/07/25 19:30:00, 0.0,25.4
2023/07/25 19:40:00, 0.0,25.2
2023/07/25 19:50:00, 0.0,24.8
2023/07/25 20:00:00, 0.1,24.6
2023/07/25 20:10:00, 0.0,24.3
2023/07/25 20:20:00, 0.0,24.1
2023/07/25 20:30:00, 0.0,24.3
2023/07/25 20:40:00, 0.0,24.1
2023/07/25 20:50:00, 0.0,24.0
2023/07/25 21:00:00, 0.0,24.0
2023/07/25 21:10:00, 0.0,24.0
2023/07/25 21:20:00, 0.0,23.8
2023/07/25 21:30:00, 0.0,24.0
2023/07/25 21:40:00, 0.1,23.7
2023/07/25 21:50:00, 0.1,23.8
2023/07/25 22:00:00, 0.1,23.7
2023/07/25 22:10:00, 0.1,23.7
2023/07/25 22:20:00, 0.1,23.7
2023/07/25 22:30:00, 0.0,23.7
2023/07/25 22:40:00, 0.0,23.7
2023/07/25 22:50:00, 0.0,23.7
2023/07/25 23:00:00, 0.0,23.6
2023/07/25 23:10:00, 0.0,23.5
2023/07/25 23:20:00, 0.0,23.4
2023/07/25 23:30:00, 0.0,23.3
2023/07/25 23:40:00, 0.0,23.0
2023/07/25 23:50:00, 0.0,23.3
